TimeMDT,TemperatureF,Dew PointF,Humidity,Sea Level PressureIn,VisibilityMPH,Wind Direction,Wind SpeedMPH,Gust SpeedMPH,PrecipitationIn,Events,Conditions,WindDirDegrees,DateUTC
12:53 AM,37.0,15.1,41,30.13,10.0,SE,11.5,-,N/A,,Clear,140,2014-03-25 06:53:00
1:53 AM,37.9,12.9,36,30.12,10.0,SE,10.4,-,N/A,,Clear,140,2014-03-25 07:53:00
2:53 AM,36.0,14.0,41,30.12,10.0,SE,9.2,-,N/A,,Clear,130,2014-03-25 08:53:00
3:53 AM,32.0,15.1,50,30.12,10.0,South,5.8,-,N/A,,Clear,170,2014-03-25 09:53:00
4:53 AM,30.0,14.0,51,30.13,10.0,SSE,8.1,-,N/A,,Clear,150,2014-03-25 10:53:00
5:53 AM,30.0,14.0,51,30.12,10.0,SE,6.9,-,N/A,,Clear,130,2014-03-25 11:53:00
6:53 AM,30.0,14.0,51,30.13,10.0,SE,9.2,-,N/A,,Clear,140,2014-03-25 12:53:00
7:53 AM,30.9,14.0,50,30.14,10.0,SE,5.8,-,N/A,,Clear,140,2014-03-25 13:53:00
8:53 AM,41.0,12.9,32,30.12,10.0,South,3.5,-,N/A,,Clear,180,2014-03-25 14:53:00
9:53 AM,50.0,12.0,22,30.09,10.0,NNE,9.2,-,N/A,,Clear,30,2014-03-25 15:53:00
10:53 AM,53.1,16.0,23,30.05,10.0,WNW,6.9,-,N/A,,Clear,290,2014-03-25 16:53:00
11:53 AM,57.0,14.0,18,30.00,10.0,Variable,6.9,-,N/A,,Clear,0,2014-03-25 17:53:00
12:53 PM,59.0,12.9,16,29.96,10.0,Calm,Calm,-,N/A,,Clear,0,2014-03-25 18:53:00
1:53 PM,63.0,12.0,14,29.90,10.0,Variable,3.5,-,N/A,,Clear,0,2014-03-25 19:53:00
2:53 PM,66.0,10.0,11,29.85,10.0,North,5.8,-,N/A,,Clear,360,2014-03-25 20:53:00
3:53 PM,66.9,8.1,10,29.82,10.0,WNW,6.9,-,N/A,,Clear,290,2014-03-25 21:53:00
4:53 PM,68.0,1.0,7,29.79,10.0,NW,8.1,-,N/A,,Clear,310,2014-03-25 22:53:00
5:53 PM,66.9,6.1,9,29.76,10.0,West,9.2,-,N/A,,Clear,280,2014-03-25 23:53:00
6:53 PM,64.0,1.9,8,29.75,10.0,West,11.5,-,N/A,,Clear,280,2014-03-26 00:53:00
7:53 PM,57.0,6.1,13,29.76,10.0,WNW,5.8,-,N/A,,Clear,290,2014-03-26 01:53:00
8:53 PM,48.9,12.0,23,29.77,10.0,ESE,9.2,-,N/A,,Clear,110,2014-03-26 02:53:00
9:53 PM,46.0,12.0,25,29.75,10.0,SE,9.2,-,N/A,,Clear,140,2014-03-26 03:53:00
10:53 PM,44.1,12.0,27,29.73,10.0,SE,10.4,-,N/A,,Clear,130,2014-03-26 04:53:00
11:53 PM,42.1,14.0,32,29.72,10.0,SSE,6.9,-,N/A,,Clear,150,2014-03-26 05:53:00